Regional Weather Roundup
Issued by NWS

Home | Current Version | Previous Version | Text Only | Print | Product List | Glossary Off
Versions: 1 2 3 4 5 6 7 8 9 10 11 12 13 14 15 16 17 18 19 20 21 22 23 24 25 26 27 28 29 30 31 32 33 34 35 36 37 38 39 40 41 42 43 44 45 46 47 48 49 50

000
ASUS43 KIND 241709
RWRIN

WEATHER ROUNDUP FOR INDIANA
NATIONAL WEATHER SERVICE INDIANAPOLIS IN
100 PM EDT SUN MAY 24 2015

NOTE: "FAIR" INDICATES FEW OR NO CLOUDS BELOW 12,000 FEET WITH NO
SIGNIFICANT WEATHER AND/OR OBSTRUCTIONS TO VISIBILITY.

* - STATION DOES NOT REPORT WEATHER SUCH AS PRECIPITATION OR FOG.

+ - STATION NOT QUALITY CONTROLLED BY THE NATIONAL WEATHER SERVICE.
    USE DATA WITH CAUTION...ESPECIALLY DEWPOINT AND RELATIVE
    HUMIDITY OBSERVATIONS.

INZ001>003-010>013-019-020-241800-
NORTHWEST INDIANA

CITY           SKY/WX    TMP DP  RH WIND       PRES   REMARKS
GARY /AIRPORT/ CLOUDY    75  54  46 SE8       30.14F
KNOX *+        CLOUDY    75  52  43 SE10      30.15F
LA PORTE +     CLOUDY    77  54  44 SE8       30.17F
MICHIGAN CITY+ CLOUDY    73  52  46 SE6       30.15F
MONTICELLO +   MOSUNNY   78  60  54 S8        30.14F
RENSSELAER +   PTSUNNY   81  55  41 S12G22    30.13F
VALPARAISO     CLOUDY    75  55  49 SE8       30.15F

$$

LMZ046-743>745-241800-
SOUTHERN LAKE MICHIGAN

STATION/POSITION TIME  TEMP    WIND        PRES    WAVE
                       AIR SEA DIR/SP/G            HT
                 (UTC) (F)     (DEG/KT/KT) (MB)    (FT)
BURNS HARBOR     1700   74     140/  8/ 12 1021.0F
MICHIGAN CITY    1700   71      90/  8/ 10   N/A
5NW MICH CITY    1700   59 54   90/  4/  6   N/A     0

$$

INZ004-005-014>016-021>024-241800-
NORTH CENTRAL INDIANA

CITY           SKY/WX    TMP DP  RH WIND       PRES   REMARKS
ELKHART        CLOUDY    73  50  43 S7        30.19F
GOSHEN         CLOUDY    74  56  53 SE7       30.19F
LOGANSPORT +   PTSUNNY   79  50  36 S13       30.16F
PERU/GRISSOM   PTSUNNY   79  58  49 S12       30.16F
ROCHESTER +    CLOUDY    79  59  50 S8        30.17F
SOUTH BEND     CLOUDY    74  52  46 SE10      30.18F
WARSAW +       CLOUDY    73  55  53 SE6       30.19F

$$

INZ006>009-017-018-025>027-241800-
NORTHEAST INDIANA

CITY           SKY/WX    TMP DP  RH WIND       PRES   REMARKS
ANGOLA *+      MOSUNNY   72  55  56 S5        30.22F
AUBURN +       CLOUDY    73  54  49 S6        30.22F
FORT WAYNE     CLOUDY    76  57  51 S8        30.21F
HUNTINGTON +   CLOUDY    76  56  51 S8        30.19F

$$

INZ028-029-035-036-043>045-051>053-241800-
WEST CENTRAL INDIANA

CITY           SKY/WX    TMP DP  RH WIND       PRES   REMARKS
CRAWFORDSVL +  SUNNY     79  48  33 S12G20    30.16S
GREENCASTLE +  MOSUNNY   77  52  41 S9G20     30.17F
LAFAYETTE      PTSUNNY   77  57  50 S13G18    30.14F
TERRE HAUTE    MOSUNNY   80  59  48 S10G21    30.14F

$$

INZ030>032-037>040-046>048-054>057-064-065-241800-
CENTRAL INDIANA

CITY           SKY/WX    TMP DP  RH WIND       PRES   REMARKS
CP ATTERBURY + MOSUNNY   77  55  47 S7G17     30.20F
COLUMBUS       MOSUNNY   79  46  31 S12G17    30.20F
FRANKFORT +    SUNNY     82  57  42 S9G20     30.17F
GREENWOOD *+   PTSUNNY   81  50  34 S15       30.20F
INDIANAPOLIS   MOSUNNY   80  55  42 S14       30.17F
-EAGLE CREEK   MOSUNNY   79  56  45 S12       30.18F
KOKOMO *+      PTSUNNY   79  59  50 S13G18    30.17F
MARION +       PTSUNNY   78  53  42 S10       30.20F
MT COMFORT *+  MOSUNNY   82  36  18 S13       30.19F
SHELBYVILLE    MOSUNNY   80  54  40 S13       30.19F
ZIONSVILLE +   MOSUNNY   81  54  39 S13G20    30.19F

$$

INZ033-034-041-042-049-050-058-059-241800-
EAST CENTRAL INDIANA

CITY           SKY/WX    TMP DP  RH WIND       PRES   REMARKS
MUNCIE         PTSUNNY   80  54  40 S6G21     30.20F

$$

INZ060-061-067>069-081>083-085>088-241800-
SOUTHWEST INDIANA

CITY           SKY/WX    TMP DP  RH WIND       PRES   REMARKS
EVANSVILLE     MOSUNNY   81  58  45 S13       30.16F
HUNTINGBURG *+ PTSUNNY   81  57  44 S15       30.18F
WASHINGTON +   MOSUNNY   80  50  35 S14G22    30.15F

$$

INZ062-063-066-070>080-084-089>092-241800-
SOUTH CENTRAL AND SOUTHEAST INDIANA

CITY           SKY/WX    TMP DP  RH WIND       PRES   REMARKS
BLOOMINGTON    MOSUNNY   81  56  42 S10       30.18F
MADISON *+     MOSUNNY   81  45  28 S10       30.25F
NORTH VERNON + MOSUNNY   81  55  41 S13       30.22F
SEYMOUR +      MOSUNNY   84  54  34 S14G25    30.20F

$$



USA.gov is the U.S. government's official web portal to all federal, state and local government web resources and services.